Location: Cisewo
(53.3833°N, 14.9000°E)
Time: 03:51:27
(UTC+00:00)

BEESAT 3 - Pass Details

Date: 04 October 2021
Orbit: 481 x 510 km, 64.9° (Epoch: 16 October)

Event Time Altitude Azimuth Distance (km) Brightness Sun altitude
Rises 19:15:02 0° 315° (NW) 2,620 ? -24.8°
Reaches altitude 10° 19:17:12 10° 315° (NW) 1,735 ? -25.1°
Enters shadow 19:20:08 50° 310° (NW) 659 ? -25.4°
